Other Public Products
Issued by NWS Grand Forks, ND

Home | Current Version | Previous Version | Text Only | Print | Product List | Glossary On
Versions: 1 2 3 4 5 6 7 8 9 10 11 12 13 14 15 16 17 18 19 20 21 22 23 24 25 26 27 28 29 30 31 32 33 34 35 36 37 38 39 40 41 42 43 44 45 46 47 48 49 50
017
FPUS83 KFGF 041010
OPUFGF
PRAIRIE TO PINES WEATHER ROUNDUP
NATIONAL WEATHER SERVICE EASTERN NORTH DAKOTA/GRAND FORKS ND
400 AM CST SUN DEC 04 2016

 **SATELLITE DATA USED TO AUGMENT SKY COVER AT AUTOMATED STATIONS**
 *****  WEATHER ACROSS EASTERN NORTH DAKOTA  *****

CITY           SKY/WX    TMP DP  RH WIND       PRES   REMARKS
GRAND FORKS    MIX PCPN  34  31  88 S16       29.77F FOG     WCI  24
GRAND FORKS AF LGT SNOW  33  32  96 S15       29.76F FOG     WCI  23
GRAND CITY NWS   N/A     32 N/A N/A SE16        N/A  WCI  21
BUXTON         NOT AVBL
DEVILS LAKE    FLURRIES  31  29  92 SW12      29.70F WCI  22
FARGO          CLOUDY    35  31  85 S17G28    29.81F WCI  25
WAHPETON ARPT  CLOUDY    32  32 100 SE13G18   29.84F WCI  22
$$

 *****  WEATHER ACROSS CENTRAL AND WESTERN NORTH DAKOTA  *****

CITY           SKY/WX    TMP DP  RH WIND       PRES   REMARKS
JAMESTOWN      CLOUDY    31  28  89 S6        29.74F
BISMARCK       PTCLDY    32  29  88 W14       29.76S WCI  22
MINOT          CLOUDY    29  26  89 W22G28    29.71S WCI  15
MINOT AFB      CLOUDY    27  24  90 NW23      29.70S WCI  12
GARRISON         N/A     32  29  88 NW12      29.72S WCI  23
WILLISTON      LGT SNOW  33  30  88 W8        29.78S FOG
DICKINSON      PTCLDY    24  20  84 W16       29.75F WCI  11
HETTINGER      CLEAR     20  16  84 W8        29.83S WCI  10
$$

 *****  OTHER OBSERVATIONS NORTHEAST NORTH DAKOTA  *****

CITY           SKY/WX    TMP DP  RH WIND       PRES   REMARKS
WALHALLA       MIX PCPN  32  32 100 SE13      29.74F WCI  22
LANGDON        CLOUDY    32  32 100 S14       29.69F FOG     WCI  22
CAVALIER         N/A     32  32 100 S10G16    29.75F FOG     WCI  24
GRAFTON        CLOUDY    34  34 100 SE13      29.78F FOG     WCI  25
CANDO          LGT SNOW  30  30 100 S7        29.70F WCI  23
FORT TOTTEN      N/A     29  29 100 S6        29.95S WCI  23
ROLLA          LGT SNOW  27  27 100 S5        29.66F WCI  21
RUGBY            N/A     28  28 100 W18       29.69S WCI  16
 ***** THE ABOVE OBSERVATIONS ARE NON NWS ARE NOT QUALITY
        CONTROLLED AND MAY MIS-REPORT RAIN FOR SNOW...
$$

 *****  OTHER OBSERVATIONS SOUTHEAST NORTH DAKOTA *****

CITY           SKY/WX    TMP DP  RH WIND       PRES   REMARKS
COOPERSTOWN    CLOUDY    32  32 100 S15       29.74F FOG     WCI  22
VALLEY CITY    CLOUDY    32  32 100 S13       29.77F WCI  22
OAKES          NOT AVBL
GWINNER          N/A     34  34 100 S14       29.79F WCI  24
SHEYENNE NWR     N/A     34  32  93 S9        29.95S
BUFFALO        NOT AVBL
WYNDMERE       NOT AVBL
 ***** THE ABOVE OBSERVATIONS ARE NON NWS ARE NOT QUALITY
       CONTROLLED AND MAY MIS-REPORT RAIN FOR SNOW...
$$

  *****  WEATHER ACROSS NORTHERN MINNESOTA  *****

CITY           SKY/WX    TMP DP  RH WIND       PRES   REMARKS
FLAG ISLAND    LGT SNOW  28  27  93 SE15G21   29.89F WCI  17
WARROAD        CLOUDY    28  25  86 SE10      29.87F WCI  19
ROSEAU         CLOUDY    30  27  86 SE9       29.84F WCI  22
HALLOCK        CLOUDY    34  32  93 SE15      29.78F FOG     WCI  24
THF RVR FALLS  CLOUDY    32  30  92 SE15      29.82F WCI  22
HALSTAD          N/A     34  32  92 S17         N/A  WCI  24
FOSSTON        CLOUDY    30  28  93 SE10      29.84F WCI  21
BAUDETTE       CLOUDY    26  23  88 SE12      29.90F WCI  16
WASKISH        CLOUDY    28  27  93 SE7       29.91F WCI  21
CROOKSTON      CLOUDY    34  34 100 S17       29.81F WCI  23
$$
  *****  WEATHER ACROSS CENTRAL AND WEST MINNESOTA  *****

CITY           SKY/WX    TMP DP  RH WIND       PRES   REMARKS
BEMIDJI        CLOUDY    28  27  96 SE12      29.88F FOG     WCI  18
PARK RAPIDS    CLOUDY    30  27  88 SE14      29.88F FOG     WCI  19
WADENA         DRIZZLE   30  30 100 SE9       29.88F WCI  22
DETROIT LAKES  LGT SNOW  32  32 100 S14       29.85F WCI  22
MOORHEAD       CLOUDY    34  30  86 S20       29.83F FOG     WCI  22
FERGUS FALLS   CLOUDY    34  34 100 S16       29.89F FOG     WCI  23
ELBOW LAKE     CLOUDY    32  32  99 S17       29.87F WCI  21
MORRIS MN      MOCLDY    34  32  93 S12       29.88F FOG
STAPLES        CLOUDY    28  28 100 SE8       29.91F FOG     WCI  20
WHEATON        NOT AVBL
$$
  *****  WEATHER ELSEWHERE ACROSS MINNESOTA  *****

CITY           SKY/WX    TMP DP  RH WIND       PRES   REMARKS
DULUTH         LGT SNOW  26  24  92 SE10      30.02F FOG     WCI  16
INTRNTL FALLS  LGT SNOW  26  23  88 SE9       29.96F FOG     WCI  17
ELY            LGT SNOW  25  23  93 S7        30.02F WCI  17
CLOQUET        LGT SNOW  27  25  93 E6        30.02F WCI  20
BRAINERD       LGT SNOW  29  27  92 SE9       29.95F FOG     WCI  20
HIBBING        LGT SNOW  25  23  92 SE8       29.99F VSB 3/4 WCI  16
ALEXANDRIA     CLOUDY    33  33 100 S15       29.89F FOG     WCI  23
SAINT CLOUD    LGT SNOW  31  30  96 SE10      29.96F FOG     WCI  22
MINNEAPOLIS    LGT SNOW  31  29  92 SE12      30.02F FOG     WCI  22
$$

  *****  WEATHER ACROSS SOUTH DAKOTA  *****

CITY           SKY/WX    TMP DP  RH WIND       PRES   REMARKS
SIOUX FALLS    CLOUDY    34  33  96 SW9       29.91F
BROOKINGS      CLOUDY    34  30  86 S13       29.87F WCI  25
WATERTOWN      CLOUDY    32  31  96 S13       29.83F WCI  22
HURON          CLOUDY    29  28  96 S8        29.87F WCI  21
SISSETON         N/A     35  32  88 S12       29.82F
ABERDEEN       CLOUDY    29  25  85 SW9       29.82F WCI  20
MITCHELL       MOCLDY    30  27  88 SW8       29.90F WCI  22
PIERRE         CLEAR     31  25  78 W14       29.86S WCI  21
MOBRIDGE       CLEAR     30  24  78 W8        29.79F WCI  22
RAPID CITY     CLEAR     26  20  77 SW7       29.90F WCI  18
$$

  *****  SOME WEATHER IN NEARBY STATES *****

CITY           SKY/WX    TMP DP  RH WIND       PRES   REMARKS
GLASGOW MT     CLEAR     26  21  81 W8        29.80F WCI  18
GREAT FALLS MT CLOUDY    33  21  61 SW18G28   29.81F WCI  22
CHEYENNE WY    CLEAR     26   8  46 W8G21     29.99F WCI  18
SCOTTSBLUFF NE CLEAR     22  13  68 NW5       30.01S WCI  16
OMAHA NE       CLOUDY    35  31  85 SW3       30.01F
DES MOINES IA  LGT SNOW  37  35  92 S10       30.04F FOG
DAVENPORT IA   CLOUDY    34  27  75 SE8       30.16F
CHICAGO IL     CLOUDY    31  25  78 CALM      30.21F
EAU CLAIRE WI  LGT SNOW  30  28  92 SE6       30.08F FOG     WCI  24
LA CROSSE WI   LGT SNOW  34  31  88 SE7       30.12F FOG
$$

  *****  SOME NATIONAL WEATHER *****

CITY           SKY/WX    TMP DP  RH WIND       PRES   REMARKS
LA GUARDIA NY  CLOUDY    43  26  51 NW14G22   30.19S
RALEIGH NC     CLOUDY    42  31  64 N5        30.28R
ATLANTA GA     CLOUDY    46  42  86 E16       30.14S
NEW ORLEANS LA CLOUDY    63  63 100 NE6       29.88F FOG
OKLAHOMA CITY  LGT RAIN  44  43  96 N7        30.03S
ALBUQUERQUE NM CLOUDY    29  18  63 N6        30.12S WCI  23
SALT LAKE CITY PTCLDY    30  21  69 SE12      30.23F WCI  20
LOS ANGELES CA CLEAR     48  35  60 E5        30.07R
BOISE ID       CLOUDY    39  28  64 SE8       30.12F
SEATTLE WA     CLOUDY    44  41  89 SW20      30.00F
$$

*** WEATHER ACROSS MANITOBA...SASKATCHEWAN AND ONTARIO ***
                ***ONTARIO***

CITY           SKY/WX    TMP DP  RH WIND       PRES   REMARKS
GERALDTON      LGT SNOW  19  19 100 SE7       30.16F WCI  10
THUNDER BAY    CLOUDY    28  28 100 CALM      30.11F
SIOUX LOOKOUT  CLOUDY    25  21  86 S10       30.00F WCI  15
TORONTO        MOCLDY    34  27  75 N5        30.24F
BIG TROUT LK   CLOUDY    18  16  93 S14       30.05F WCI   4
PICKLE LAKE    NOT AVBL
DRYDEN         CLOUDY    25  21  86 SE10      29.96F WCI  15
KENORA         LGT SNOW  25  23  93 SE13      29.89F WCI  13
$$
                *** MANITOBA***

CITY           SKY/WX    TMP DP  RH WIND       PRES   REMARKS
BRANDON        LGT SNOW  28  27  93 CALM      29.68F
DAUPHIN        LGT SNOW  28  27  93 SE6       29.70F WCI  22
ISLAND LAKE    NOT AVBL
PILOT MOUND      N/A     30  30 100 SE12        N/A  WCI  21
THE PAS        LGT SNOW  28  27  93 S6        29.68F FOG     WCI  22
THOMPSON       LGT SNOW  18  16  93 E3        29.80F
WINNIPEG       CLOUDY    30  27  86 SE16G22   29.79F WCI  19
LYNN LAKE      FLURRIES  21  19  93 SE9       29.68F WCI  11
CHURCHILL      LGT SNOW  10   9  92 S7        29.97F WCI   0
GILLAM         LGT SNOW   9   7  92 SE6       29.93F WCI  -1
$$
                ***SASKATCHEWAN***

CITY           SKY/WX    TMP DP  RH WIND       PRES   REMARKS
ESTEVAN        NOT AVBL
KINDERSLEY     CLEAR     12  10  92 SW2       29.68F
LLOYDMINSTER   CLEAR     18  14  86 W12       29.64S WCI   5
PRINCE ALBERT  CLOUDY    25  23  93 SW7       29.67F WCI  17
REGINA         CLOUDY    27  25  93 W13       29.72F WCI  16
YORKTON        CLOUDY    27  25  93 NW13      29.68S WCC1F1C2F2C3F3C4F4C5F5C6F6C7F7C8F8C9F9CaFaCbFbCcFcCdFdCe!



USA.gov is the U.S. government's official web portal to all federal, state and local government web resources and services.